Weather History for Fort Myers, FL

Change the Weather History Date:

Friday, June 14, 2013

  Actual Average Record
Temperature  
Mean Temperature 82 °F 83 °F  
Max Temperature 89 °F 92 °F 101 °F (1981)
Min Temperature 75 °F 74 °F 65 °F (1990)
Degree Days  
Heating Degree Days 0 0  
Month to date heating degree days 0 0  
Since 1 June heating degree days 0 0  
Since 1 July heating degree days 201 287  
Cooling Degree Days 17 18  
Month to date cooling degree days 222 240  
Year to date cooling degree days 1360 1306  
Since 1 June cooling degree days 222 240  
Growing Degree Days 32 (Base 50)    
Moisture  
Dew Point 73 °F    
Average Humidity 76    
Maximum Humidity 94    
Minimum Humidity 55    
Precipitation  
Precipitation 0.00 in 0.37 in 6.44 in (1936)
Month to date precipitation 4.53 4.10  
Year to date precipitation 14.69 15.90  
Sea Level Pressure  
Sea Level Pressure 29.94 in    
Wind  
Wind Speed 6 mph (West)    
Max Wind Speed 15 mph    
Max Gust Speed 22 mph    
Visibility 10 miles    
Events      
T = Trace of Precipitation, MM = Missing Value Source: NWS Daily Summary

Daily Weather History Graph

Daily Weather History Graph

Search for Another Location

Airport:

Trip Planner

Search our weather history database for the weather conditions in past years. The results will help you decide how hot, cold, wet, or windy it might be!

Date:

Astronomy

Jun. 14, 2013 Rise Set
Actual Time 6:33 AM EDT 8:21 PM EDT
Civil Twilight 6:07 AM EDT 8:48 PM EDT
Nautical Twilight 5:36 AM EDT 9:19 PM EDT
Astronomical Twilight 5:02 AM EDT 9:53 PM EDT
Moon 11:41 AM EDT (6/14) No Moon Set
Length of Visible Light 14h 40m
Length of Day
13h 47m
Waxing Crescent, 30% of the Moon is Illuminated
Jun 14
Waxing Crescent
Jun 16
First Quarter
Jun 23
Full
Jun 30
Last Quarter
Jul 8
New

Hourly Weather History & Observations

Time (EDT) Temp. Heat Index Dew Point Humidity Pressure Visibility Wind Dir Wind Speed Gust Speed Precip Events Conditions
12:53 AM 75.0 °F - 73.9 °F 96% 29.97 in 10.0 mi Calm Calm - N/A   Clear
1:53 AM 75.0 °F - 73.0 °F 94% 29.97 in 10.0 mi Calm Calm - N/A   Partly Cloudy
2:53 AM 75.0 °F - 73.9 °F 96% 29.95 in 10.0 mi Calm Calm - N/A   Clear
3:53 AM 75.0 °F - 73.0 °F 94% 29.93 in 10.0 mi Calm Calm - N/A   Clear
4:53 AM 75.0 °F - 73.9 °F 96% 29.92 in 10.0 mi Calm Calm - N/A   Partly Cloudy
5:53 AM 75.0 °F - 73.9 °F 96% 29.93 in 10.0 mi Calm Calm - N/A   Partly Cloudy
6:53 AM 75.0 °F - 73.9 °F 96% 29.92 in 10.0 mi South 3.5 mph - N/A   Clear
7:53 AM 79.0 °F - 75.9 °F 90% 29.94 in 10.0 mi Calm Calm - N/A   Mostly Cloudy
8:31 AM 80.6 °F 86.2 °F 75.2 °F 84% 29.94 in 10.0 mi West 5.8 mph - N/A   Partly Cloudy
8:53 AM 82.0 °F 88.6 °F 75.0 °F 79% 29.95 in 10.0 mi WNW 5.8 mph - N/A   Scattered Clouds
9:04 AM 82.4 °F 88.2 °F 73.4 °F 74% 29.95 in 10.0 mi WNW 10.4 mph - N/A   Mostly Cloudy
9:11 AM 82.4 °F 88.2 °F 73.4 °F 74% 29.94 in 10.0 mi WNW 8.1 mph - N/A   Scattered Clouds
9:21 AM 82.4 °F 88.2 °F 73.4 °F 74% 29.94 in 10.0 mi WNW 11.5 mph - N/A   Mostly Cloudy
9:30 AM 82.4 °F 88.2 °F 73.4 °F 74% 29.94 in 10.0 mi WNW 10.4 mph - N/A   Scattered Clouds
9:53 AM 84.0 °F 90.2 °F 73.0 °F 69% 29.95 in 10.0 mi West 6.9 mph - N/A   Partly Cloudy
10:53 AM 86.0 °F 91.5 °F 71.1 °F 61% 29.95 in 10.0 mi West 9.2 mph - N/A   Clear
11:53 AM 86.0 °F 91.5 °F 71.1 °F 61% 29.96 in 10.0 mi West 9.2 mph - N/A   Clear
12:53 PM 88.0 °F 92.9 °F 70.0 °F 55% 29.97 in 10.0 mi NW 10.4 mph - N/A   Clear
1:53 PM 88.0 °F 93.8 °F 71.1 °F 57% 29.94 in 10.0 mi West 6.9 mph - N/A   Clear
2:53 PM 88.0 °F 94.7 °F 72.0 °F 59% 29.93 in 10.0 mi West 10.4 mph - N/A   Clear
3:53 PM 88.0 °F 93.8 °F 71.1 °F 57% 29.93 in 10.0 mi WNW 11.5 mph - N/A   Partly Cloudy
4:53 PM 87.1 °F 92.0 °F 70.0 °F 57% 29.93 in 10.0 mi WNW 12.7 mph - N/A   Clear
5:53 PM 86.0 °F 91.5 °F 71.1 °F 61% 29.90 in 10.0 mi West 6.9 mph - N/A   Clear
6:53 PM 84.9 °F 90.1 °F 71.1 °F 63% 29.91 in 10.0 mi WSW 10.4 mph - N/A   Clear
7:53 PM 82.9 °F 88.0 °F 72.0 °F 69% 29.95 in 10.0 mi WNW 9.2 mph - N/A   Partly Cloudy
8:53 PM 81.0 °F 85.2 °F 72.0 °F 74% 29.94 in 10.0 mi West 6.9 mph - N/A   Clear
9:53 PM 80.1 °F 84.2 °F 73.0 °F 79% 29.95 in 10.0 mi WSW 5.8 mph - N/A   Clear
10:53 PM 80.1 °F 84.2 °F 73.0 °F 79% 29.98 in 10.0 mi WNW 4.6 mph - N/A   Clear
11:53 PM 79.0 °F - 73.0 °F 82% 29.97 in 10.0 mi WSW 3.5 mph - N/A   Clear